Theta_e
341 344 344 348 351 351 351 351 351 351 352 352 352 352 351 350 350 350 349 349 349 348 348 348 349 349 348 349 349 349 347 347 347 348 348 348 348 349 349 349 348 350 351 350 350 351 350 349 351 351 349 347 346 345 344 344 345 345 345 346 347 347 348 348 349 349 350 351 351 351 350 350 350 350 350 351 352 352 352 352 350 348 348 351 352
338 344 343 347 350 351 351 351 351 351 352 352 352 351 351 350 350 349 349 348 348 349 349 349 349 349 349 349 349 348 349 348 348 348 348 348 349 348 348 348 348 349 350 350 349 350 349 350 350 350 348 347 345 344 342 341 341 342 342 343 344 345 345 346 346 347 348 349 351 351 350 350 350 349 349 350 352 351 350 350 350 347 347 351 352
342 343 344 346 349 350 351 351 351 351 352 352 352 351 351 350 350 349 348 348 349 349 350 349 349 348 348 349 348 348 348 348 348 348 348 347 347 347 347 347 348 348 349 348 349 350 349 347 349 347 345 344 343 342 341 340 339 339 340 342 342 343 343 343 344 345 345 347 349 349 349 350 350 349 350 350 350 350 349 349 349 348 347 351 351
343 343 344 346 347 348 350 351 351 352 352 352 351 351 350 350 349 349 349 349 349 349 349 348 348 348 348 348 348 348 347 347 348 348 348 348 348 347 347 347 348 347 347 347 349 348 348 347 348 346 344 342 342 341 339 339 338 338 339 339 339 341 341 341 341 341 343 343 345 347 346 346 347 349 350 349 350 350 349 349 349 348 349 350 351
344 344 344 346 346 347 349 350 352 351 351 352 351 351 351 351 350 350 349 349 349 350 348 348 348 349 348 348 348 348 348 347 348 348 348 348 348 348 348 348 348 347 347 347 347 346 347 348 346 344 342 341 340 339 338 337 337 337 337 338 338 338 338 339 339 340 342 342 342 342 341 346 345 349 349 349 349 349 348 349 348 349 348 348 349
342 344 345 346 346 346 348 349 351 351 352 351 351 351 351 350 350 349 349 349 349 348 348 348 348 349 349 348 349 348 348 348 347 347 348 348 348 347 348 347 346 346 347 347 346 346 347 346 344 342 340 339 338 337 337 336 335 335 335 335 336 337 336 336 337 339 339 339 337 336 341 345 346 346 349 349 348 347 347 347 347 347 347 347 347
343 344 344 345 346 346 346 349 351 351 350 351 351 350 351 350 350 349 349 348 348 348 348 348 348 349 349 349 348 348 348 347 347 347 347 347 347 347 346 346 346 347 347 346 346 346 345 344 342 341 340 338 337 336 335 335 334 333 332 332 333 334 335 336 336 337 337 333 331 337 339 343 344 345 347 348 348 346 346 347 347 347 346 346 346
340 344 343 344 345 345 345 350 350 351 351 351 351 351 351 350 350 349 349 348 348 349 348 348 349 349 349 349 348 348 347 347 348 347 346 346 346 346 346 345 346 346 345 346 345 345 344 342 341 339 338 337 336 335 334 333 332 331 329 329 330 332 333 333 335 335 336 331 334 335 335 340 343 344 347 348 348 347 347 347 346 347 347 346 346
339 343 342 343 343 343 344 347 351 351 351 351 351 351 351 350 350 349 349 348 348 349 348 348 348 349 349 348 348 347 347 347 347 346 345 345 345 345 345 345 345 345 345 344 344 343 341 341 339 337 336 335 334 333 332 331 330 329 329 328 328 329 330 332 332 333 329 331 332 332 335 337 343 343 347 347 347 347 346 345 346 346 346 345 345
337 341 342 342 343 341 344 346 351 351 351 351 351 351 351 350 350 349 348 348 348 348 349 348 348 349 348 348 348 347 347 347 346 345 345 345 344 344 345 344 344 343 343 342 342 342 341 339 337 336 335 334 332 331 330 329 327 327 326 326 327 328 329 330 332 330 329 331 333 331 335 344 342 342 345 345 345 345 344 344 345 345 344 344 344
336 339 342 342 344 341 345 348 350 349 351 351 352 351 350 350 350 349 349 348 348 348 348 348 349 348 348 348 348 347 346 346 345 344 344 343 343 342 341 341 340 340 340 340 340 339 338 338 336 335 334 332 329 328 327 327 326 325 324 323 324 326 327 329 330 326 329 331 332 332 335 343 339 340 344 344 344 343 342 342 342 342 342 342 343
335 337 340 340 340 340 345 347 348 350 350 350 351 351 350 350 349 349 348 348 348 349 349 348 348 348 348 347 347 347 346 346 344 343 342 341 341 340 339 339 339 338 338 337 337 337 336 335 334 333 331 329 328 326 326 324 324 322 321 322 323 324 326 329 326 325 327 329 330 332 333 334 336 340 342 342 342 341 341 341 341 341 341 341 342
335 335 340 342 340 340 343 346 347 349 350 351 351 351 350 349 349 349 348 349 349 349 348 348 350 348 348 347 347 347 347 346 343 342 341 340 339 339 338 338 338 337 336 335 335 335 334 333 333 331 328 327 326 325 324 323 322 321 321 321 321 323 324 326 323 324 325 326 328 330 331 332 333 340 340 341 341 340 339 339 340 340 340 340 340
334 335 341 342 340 338 340 342 345 348 349 350 351 350 350 350 349 349 348 349 349 349 348 348 348 348 348 347 347 346 346 344 343 341 340 339 339 338 337 337 338 336 335 335 334 333 332 331 330 329 326 325 324 324 323 322 321 320 320 319 321 322 323 323 325 321 322 323 325 329 328 329 332 338 337 339 339 338 337 337 337 337 337 337 337
332 335 338 343 340 339 337 339 342 344 346 348 349 350 350 350 349 349 349 349 349 349 348 349 348 347 347 347 346 346 345 344 343 341 340 339 338 337 336 336 337 335 333 333 332 332 330 329 328 327 326 325 323 323 322 321 320 319 318 319 320 320 323 315 319 319 321 323 323 327 326 327 336 336 336 336 336 335 335 335 334 335 335 334 334
335 336 337 340 341 340 338 337 338 338 342 345 346 347 348 349 348 349 349 349 349 349 349 348 347 347 347 346 346 345 344 344 342 341 340 339 337 336 334 335 335 333 331 331 331 330 329 329 328 326 325 324 323 322 321 320 318 318 317 317 318 320 320 316 314 316 318 321 322 326 324 326 333 333 333 333 334 333 333 332 333 333 333 333 333
336 334 334 336 340 340 340 339 337 333 335 337 340 342 344 346 347 348 347 347 348 348 348 348 347 347 347 346 346 345 344 344 342 340 340 339 337 332 332 332 332 332 331 330 330 329 328 328 327 325 323 323 322 321 319 318 318 316 315 316 316 318 318 317 316 315 317 320 323 324 323 325 330 332 332 331 330 331 331 331 331 331 331 331 331
334 334 333 334 336 340 340 340 340 337 340 335 334 338 341 344 344 345 345 345 345 347 346 346 346 346 345 344 342 342 342 343 342 342 342 339 336 334 337 332 332 331 330 329 329 328 328 328 326 324 323 323 322 320 318 316 315 314 313 313 314 316 316 317 312 313 314 320 321 322 321 330 330 330 330 330 330 330 329 330 330 330 329 330 330
332 334 333 332 334 337 339 340 340 340 342 341 341 338 334 339 341 342 342 343 344 344 344 343 342 343 342 340 338 336 335 336 337 337 336 333 330 328 332 331 331 329 329 329 328 328 327 327 325 324 323 321 320 318 316 315 313 312 311 311 311 312 313 313 310 311 313 315 319 318 320 329 328 329 329 329 329 328 328 328 328 328 327 327 327
328 332 332 332 333 333 335 338 340 341 341 341 341 340 332 331 336 338 338 340 340 341 340 339 336 335 335 334 331 329 328 329 326 328 329 332 329 326 328 330 330 330 329 328 328 328 327 326 325 324 321 320 318 316 314 312 312 310 308 309 313 311 305 305 307 307 311 314 318 317 325 327 328 328 328 328 327 327 326 327 327 327 326 325 324
329 329 330 331 332 332 333 335 338 340 340 341 341 341 338 329 331 331 333 335 336 336 336 331 327 326 327 322 322 329 327 325 324 325 322 323 322 323 327 330 329 332 332 329 328 327 326 326 325 323 321 319 316 314 312 311 309 308 308 310 309 302 302 304 305 307 310 313 316 317 325 326 327 327 327 326 325 324 325 325 325 326 326 327 327
325 326 329 330 331 332 332 334 335 337 338 339 340 340 340 332 336 335 333 332 329 328 331 333 327 329 321 322 326 326 327 325 325 324 323 322 321 321 325 329 330 332 332 329 327 327 326 325 325 323 321 317 312 305 305 310 308 307 306 310 301 301 300 301 303 305 310 312 314 319 325 326 326 326 324 324 325 325 325 325 325 326 326 327 326
323 324 327 329 331 332 332 332 332 334 335 336 337 336 337 336 337 337 335 329 329 328 330 329 329 328 325 325 324 326 326 325 325 324 324 320 321 320 324 327 329 329 330 329 327 326 325 325 324 322 319 314 307 301 299 298 298 305 307 300 300 300 301 300 301 305 308 311 310 320 323 326 325 325 323 324 325 325 326 326 326 325 325 326 325
323 325 326 329 330 331 331 332 331 332 334 334 335 334 334 335 337 337 336 334 332 330 330 329 328 328 326 325 324 325 326 326 324 321 323 322 319 319 323 324 325 324 325 325 326 326 325 324 323 321 317 310 304 303 300 298 295 294 296 300 300 301 300 300 300 303 306 311 310 318 321 325 325 324 324 323 324 324 324 324 325 324 324 325 324
322 325 325 327 329 331 331 331 331 331 331 332 332 333 332 334 335 335 335 334 333 331 330 329 328 328 327 326 325 324 326 325 322 321 321 321 319 318 320 320 319 317 319 317 317 318 319 314 312 310 303 302 302 301 302 299 296 298 298 298 299 299 299 299 300 300 305 306 308 316 318 322 326 324 323 323 324 323 323 323 323 323 323 323 323
321 324 325 326 328 330 331 331 331 331 331 331 330 330 329 330 332 333 333 333 333 332 330 329 328 328 327 326 325 325 325 324 322 321 321 320 319 318 319 319 317 317 318 316 316 316 313 309 307 304 301 300 301 300 299 299 298 298 298 298 298 298 298 298 299 300 304 305 305 314 317 319 324 326 323 323 324 323 323 323 323 323 322 322 323
319 321 325 326 328 329 330 330 330 330 330 331 330 328 328 328 329 331 331 331 332 332 330 329 329 328 327 326 324 323 323 322 321 320 320 319 318 318 317 317 317 317 316 315 315 314 311 307 303 302 300 299 300 300 300 300 299 298 298 299 298 297 297 297 297 298 301 304 308 313 315 318 322 325 323 323 323 323 322 323 322 322 321 322 322
316 320 322 325 326 328 329 330 329 330 330 331 330 329 328 328 327 326 328 327 328 329 329 329 329 327 327 326 323 323 322 321 321 320 319 318 318 318 317 316 316 315 316 314 313 311 309 304 301 299 299 300 299 299 299 300 299 299 299 298 298 297 296 296 296 297 299 302 304 310 314 317 320 322 322 322 321 322 322 321 320 321 321 321 321
311 319 320 322 325 327 329 329 330 329 330 331 330 329 328 328 327 326 326 324 326 325 327 327 327 326 326 325 323 322 321 321 319 319 318 317 317 318 317 316 316 315 315 313 312 310 307 300 299 299 299 299 298 297 297 297 296 297 299 298 297 296 296 296 297 297 297 300 303 306 312 315 319 321 321 322 322 321 321 321 320 320 320 320 320
310 315 319 320 322 326 327 328 329 329 330 330 329 328 328 327 327 327 326 325 326 325 325 324 325 325 325 325 323 323 321 320 319 318 318 316 316 317 316 316 316 315 314 313 310 307 302 297 298 299 298 298 298 297 296 296 296 296 297 297 296 297 296 296 296 298 297 299 303 304 310 313 316 320 321 321 321 321 321 321 320 319 319 320 320
311 310 315 319 319 324 325 326 328 326 328 329 328 328 327 327 327 327 326 325 326 326 324 324 324 324 324 324 323 322 321 320 319 318 317 315 315 316 315 315 315 314 313 311 307 303 299 298 299 297 297 297 296 296 296 296 296 296 297 296 295 295 295 295 296 296 297 297 302 303 304 310 314 317 320 320 321 321 321 320 319 318 319 319 320
311 311 311 317 319 322 324 325 326 326 326 327 326 327 326 326 326 327 326 325 326 325 323 323 321 323 323 324 323 322 320 320 319 318 316 315 315 315 315 314 313 311 311 306 304 301 299 298 298 297 297 297 296 295 297 295 295 296 296 295 295 295 294 295 295 296 296 297 300 304 302 305 309 312 315 319 320 320 321 320 319 318 319 319 319
312 312 312 314 318 318 322 323 325 325 325 326 326 326 326 326 325 326 326 326 325 325 323 322 322 322 322 323 323 323 320 320 318 317 315 315 313 313 313 312 311 308 307 304 301 299 298 298 299 299 297 297 295 295 297 295 295 295 295 294 295 294 294 294 295 295 297 298 298 300 304 302 302 307 310 313 316 318 319 320 320 318 319 319 318
311 311 312 313 315 319 321 323 323 323 323 325 324 324 324 324 324 325 325 325 324 324 323 323 322 321 321 322 323 322 321 319 317 315 314 313 313 313 312 310 309 306 305 302 300 297 297 298 297 296 298 296 295 295 293 294 293 293 294 293 294 294 293 294 294 296 296 297 297 297 302 302 301 301 302 307 310 314 317 318 319 319 320 318 317
309 312 312 312 312 316 319 320 319 321 321 322 321 322 322 322 321 322 323 324 323 323 322 322 321 321 321 320 321 321 321 319 316 315 313 312 311 311 310 309 308 305 303 300 299 297 297 297 296 295 295 294 294 294 293 294 293 293 294 293 294 294 293 294 295 295 296 295 297 297 298 302 302 302 301 298 302 306 312 315 316 317 319 320 318
307 308 313 313 312 314 316 315 316 317 319 320 319 320 320 319 319 319 321 319 320 320 319 320 320 318 319 319 319 320 320 319 315 314 312 311 311 310 310 308 307 304 301 299 298 296 296 296 295 294 293 293 294 292 292 292 292 293 292 292 293 293 292 293 294 295 294 294 295 296 296 295 297 300 302 298 297 301 307 310 313 314 315 317 318
305 306 306 312 312 312 314 314 315 316 318 319 318 317 319 318 319 318 319 318 318 317 317 317 316 318 317 315 317 318 318 318 315 313 312 310 309 308 308 308 306 302 300 299 297 296 295 296 293 294 293 292 292 291 291 293 293 293 292 292 292 292 293 294 294 294 296 293 294 295 295 292 292 299 293 296 296 296 302 306 307 308 310 313 315
304 304 306 307 308 310 313 313 314 315 316 317 317 317 317 317 317 317 316 318 316 316 315 315 315 315 316 315 316 317 316 316 314 312 310 309 307 307 307 306 304 302 300 298 297 295 295 294 292 293 293 293 292 291 291 292 295 293 292 292 292 291 292 293 293 296 293 293 294 294 293 292 291 293 292 293 294 295 296 300 304 303 304 308 312
304 304 305 307 308 309 311 310 311 313 314 316 315 316 316 316 316 316 316 315 315 315 315 314 314 314 314 313 314 315 314 314 313 310 309 308 306 305 305 305 303 301 299 298 296 294 294 294 292 292 293 293 292 291 292 293 294 293 292 292 292 292 293 292 292 292 292 293 294 295 295 292 292 292 292 291 291 293 293 293 293 292 294 302 307
304 304 304 305 305 308 309 309 308 310 311 314 315 313 314 312 312 312 313 313 313 313 314 313 313 313 313 312 310 312 311 312 311 309 308 306 304 303 303 303 302 300 299 297 296 294 294 293 292 292 292 292 293 292 292 292 291 290 290 291 291 292 292 292 292 291 292 293 293 292 292 291 291 291 292 291 291 291 291 291 293 292 293 297 301
303 302 303 303 304 305 306 306 307 307 308 309 311 310 309 309 310 310 310 311 312 312 312 312 312 312 312 311 309 309 309 309 309 308 308 305 303 301 300 300 300 299 298 297 296 295 294 294 293 293 292 291 290 292 292 292 290 287 288 289 290 291 292 291 291 291 292 292 292 291 291 290 290 290 290 290 290 291 290 290 290 291 290 290 294
300 301 301 302 302 303 304 305 305 305 306 308 309 309 309 309 308 308 309 309 309 309 309 310 311 311 310 309 308 308 308 309 308 307 307 306 303 300 299 299 298 298 298 297 295 295 294 294 293 291 292 291 290 291 293 291 288 286 285 287 288 289 289 289 289 289 291 291 291 292 291 290 290 290 291 290 289 290 290 289 289 290 289 289 290
300 300 301 301 301 302 303 304 305 305 304 305 306 306 308 308 308 308 308 308 309 309 309 309 309 309 309 308 307 308 307 308 308 307 307 306 304 301 299 298 298 297 296 296 295 294 294 293 293 293 291 290 290 293 292 292 287 287 287 286 284 285 287 287 288 289 291 291 290 290 291 290 290 290 290 289 289 289 290 289 289 289 289 289 290
298 299 299 300 301 301 302 302 303 303 304 303 303 304 305 307 306 305 305 305 302 304 305 305 306 307 307 307 306 305 305 304 304 304 305 305 304 302 299 298 298 297 297 295 294 294 293 293 293 292 292 290 290 292 292 290 288 289 284 285 283 284 282 285 285 287 289 290 290 290 290 290 290 289 289 289 289 288 288 289 289 290 289 289 289
297 297 298 298 300 299 300 301 302 302 302 303 303 302 304 304 304 303 302 302 302 301 301 302 303 303 304 304 304 304 304 303 303 303 303 303 303 302 299 297 297 296 296 295 294 294 294 294 293 292 291 291 289 289 291 291 289 291 288 285 284 284 283 284 285 285 287 287 289 289 290 290 290 290 288 288 288 289 289 288 289 289 289 289 289
296 297 297 298 298 298 299 300 300 301 301 301 302 302 302 300 300 299 298 298 298 298 297 298 300 300 301 301 302 303 303 302 302 302 302 301 301 301 300 297 296 296 295 295 294 293 293 293 293 293 291 290 290 289 289 291 290 290 290 288 287 284 284 285 285 284 286 287 288 289 289 289 289 289 289 288 288 288 289 289 289 289 289 289 289
295 296 296 297 297 297 297 298 298 299 300 300 301 301 300 300 300 300 299 298 298 299 300 300 300 301 303 301 301 302 302 302 301 300 300 300 300 300 300 298 296 295 295 294 293 293 294 294 293 292 292 291 288 288 289 290 289 289 291 292 291 289 289 286 283 282 280 283 286 286 287 288 288 288 289 288 288 288 288 289 288 288 289 289 289
295 295 295 296 295 295 296 296 297 297 298 299 300 300 299 299 299 299 299 298 298 298 299 299 299 299 299 300 300 300 300 301 300 299 299 299 299 299 299 298 296 295 294 294 294 293 294 294 293 293 292 291 290 289 288 289 289 289 290 289 290 290 290 290 289 287 283 281 282 285 286 287 287 288 288 288 288 288 287 288 288 288 288 288 288
294 295 295 295 295 295 294 295 296 296 297 297 298 299 299 299 298 298 298 299 299 299 299 300 299 297 298 298 299 298 299 299 299 299 298 298 298 298 297 297 297 295 294 294 293 293 293 293 293 292 291 291 291 290 289 288 289 288 287 287 289 290 289 287 288 289 284 281 281 282 283 285 286 286 287 288 288 288 288 288 288 288 288 288 288
293 294 295 295 294 294 294 294 294 295 295 296 297 297 298 298 297 297 297 297 298 298 298 298 298 298 297 297 297 297 297 297 297 297 297 297 297 296 296 296 296 296 294 293 292 293 292 292 293 293 292 291 291 290 290 289 290 289 288 288 288 287 287 287 286 286 286 285 283 281 283 284 283 285 287 287 288 288 288 287 287 288 287 287 288
292 292 293 293 293 294 293 293 293 294 294 295 295 295 296 296 296 295 295 295 296 296 295 296 296 296 297 296 296 296 295 295 296 295 296 296 296 295 295 295 295 295 294 293 292 292 292 292 293 292 292 291 291 290 290 290 289 289 288 287 288 289 289 288 287 286 287 285 284 283 283 285 285 283 285 288 287 288 288 287 287 287 287 287 287
Wind_Speed
4 11 10 15 16 17 17 17 15 15 14 13 13 12 11 10 10 10 9 9 8 9 9 9 9 9 9 9 8 8 8 8 8 8 7 7 7 6 5 5 5 6 6 7 7 9 10 10 12 13 12 11 11 12 12 12 12 12 11 11 11 11 11 10 10 10 9 9 11 12 11 11 11 12 12 12 13 14 13 11 11 7 6 9 13
5 11 10 11 16 17 17 18 17 15 15 14 13 13 12 11 9 9 9 9 9 10 10 10 9 9 9 9 8 8 8 8 7 7 6 6 6 5 4 4 5 5 6 7 8 9 10 10 12 13 12 11 11 11 11 12 12 12 12 12 11 11 10 10 9 8 7 7 8 9 9 11 11 11 12 13 13 14 14 13 11 5 4 12 12
6 10 9 11 15 16 16 17 17 15 15 15 14 13 12 11 10 10 10 10 10 11 10 9 9 8 8 8 8 8 7 7 7 6 6 6 5 5 4 3 4 4 5 6 8 9 10 10 12 12 11 11 10 10 11 11 11 11 11 11 11 10 10 9 9 8 7 7 4 8 10 9 10 11 12 13 13 13 13 12 10 7 7 13 11
8 9 9 12 14 14 15 15 15 14 14 14 14 13 12 12 11 11 11 11 11 10 9 9 8 7 7 7 7 7 6 6 7 6 6 6 5 4 4 3 4 3 5 6 9 9 10 10 12 11 11 11 10 10 10 10 10 10 10 9 9 9 8 8 8 7 7 5 3 3 3 4 5 9 11 12 13 13 11 11 11 11 12 12 13
8 9 9 10 11 12 14 14 14 14 15 15 14 13 13 13 12 12 12 11 11 10 9 9 8 7 7 7 6 6 6 6 6 6 7 6 5 5 4 5 4 4 6 8 9 8 10 12 11 11 10 10 10 10 10 10 10 10 10 9 8 8 7 7 6 6 6 4 5 5 1 5 4 8 10 11 12 12 10 9 11 12 11 12 12
7 10 10 9 9 10 14 13 14 15 14 14 15 14 13 13 13 13 12 12 11 10 9 9 8 7 7 7 7 7 7 6 6 6 6 6 6 5 5 5 5 6 8 9 8 8 10 11 11 10 9 9 9 9 9 9 9 9 9 8 8 7 7 6 6 6 8 9 7 3 3 6 5 3 9 10 11 11 11 10 11 11 11 12 11
8 9 11 10 8 10 14 14 16 15 15 15 14 14 14 14 13 13 12 12 11 10 10 9 8 8 8 7 7 7 7 6 7 7 8 7 7 6 5 5 6 7 7 8 7 9 10 10 10 7 8 8 9 8 8 9 9 8 8 7 7 7 7 6 6 7 8 6 3 3 2 7 6 3 8 9 9 10 11 11 11 11 10 11 11
5 8 10 10 9 11 14 15 15 16 16 14 13 13 14 14 14 13 12 12 11 10 10 10 9 9 8 8 7 7 7 8 9 9 8 8 7 7 6 6 7 7 7 7 8 9 9 10 8 5 7 8 8 8 8 8 8 8 7 7 7 7 7 7 7 8 10 5 5 4 4 3 5 4 8 10 11 11 10 12 12 12 13 12 10
5 7 10 9 9 17 13 14 16 16 17 15 14 14 14 15 14 13 13 11 11 11 10 11 10 9 8 8 7 8 8 9 10 9 9 8 7 8 7 7 7 6 7 7 8 7 8 8 5 5 6 7 8 8 8 8 8 7 7 7 7 6 6 7 7 8 6 1 4 5 6 5 6 5 9 12 14 14 13 10 10 13 13 11 9
5 5 9 8 8 18 15 14 16 17 18 16 14 14 16 15 13 14 13 12 12 11 11 10 10 9 9 9 8 9 11 11 10 9 10 8 8 8 9 7 6 5 6 5 5 7 7 7 4 4 5 7 7 7 8 8 8 7 7 7 7 7 7 8 9 7 4 4 3 4 6 9 6 5 9 12 13 13 11 9 7 7 7 11 11
7 5 7 8 11 18 17 14 15 15 17 16 14 15 16 15 14 14 13 12 12 12 12 11 10 9 9 9 9 10 11 11 11 10 11 9 9 7 5 5 4 3 2 3 4 3 5 4 4 3 4 6 7 7 7 7 7 7 7 7 7 7 8 8 8 2 5 5 5 5 6 11 5 4 11 12 11 12 11 9 8 8 9 10 10
7 4 5 5 15 17 17 16 14 15 15 15 16 16 16 15 15 14 14 13 12 12 12 11 10 9 9 10 10 12 12 11 11 10 9 8 7 7 4 4 4 3 3 3 1 1 1 3 3 4 4 6 7 6 6 6 7 6 7 7 7 7 8 10 5 6 5 4 4 4 5 4 3 5 11 10 10 10 10 10 10 10 9 9 10
7 5 4 6 10 17 18 17 14 14 14 15 17 18 17 16 15 15 14 13 12 12 11 11 8 9 10 10 12 12 12 11 11 10 9 8 7 7 3 1 3 1 0 0 1 1 1 2 3 3 4 6 6 6 6 6 6 6 6 6 6 7 8 9 5 5 4 4 4 6 5 5 3 8 9 10 9 9 8 10 9 10 9 9 10
7 6 6 6 6 13 17 17 15 14 14 14 15 16 16 15 16 15 15 13 12 11 11 11 10 9 10 11 12 13 12 12 12 11 8 7 6 6 4 3 4 2 1 3 2 1 1 1 2 2 5 5 5 6 6 6 6 6 7 6 6 7 9 5 5 4 3 3 3 6 5 5 3 7 7 8 8 7 7 7 8 7 8 8 8
6 5 6 7 6 8 14 14 13 13 13 13 14 15 15 15 16 14 15 13 12 10 11 10 9 10 11 12 12 13 11 11 11 9 8 6 6 4 4 4 4 5 4 3 1 1 2 2 2 4 5 6 5 6 6 6 6 6 6 6 6 6 7 3 2 1 3 3 3 5 5 4 6 8 7 6 6 6 6 6 5 6 5 6 6
5 5 5 8 7 7 8 10 13 11 11 12 12 13 14 14 14 14 13 13 12 10 10 10 10 11 12 11 13 13 12 12 11 9 9 8 6 5 4 5 6 4 5 5 4 3 3 2 2 5 6 5 5 6 6 6 6 6 7 7 6 7 7 5 3 4 4 4 4 5 5 5 8 6 6 5 5 5 4 4 4 4 4 4 4
4 5 5 6 8 7 7 7 8 10 9 11 11 12 12 12 13 13 12 12 11 10 11 10 12 14 12 12 12 11 10 9 10 10 9 10 9 5 4 5 5 6 6 6 5 4 4 4 5 5 5 5 5 6 6 6 6 6 6 6 6 6 7 7 4 3 3 3 4 5 5 5 5 7 6 4 3 3 3 4 3 3 3 3 3
4 4 4 4 7 8 7 7 7 7 6 8 10 11 11 11 12 12 12 11 11 11 11 11 12 12 12 12 10 10 9 9 11 9 7 8 6 6 3 7 7 7 8 7 6 6 5 5 6 6 6 6 6 6 6 5 6 6 6 6 5 5 6 7 4 2 2 3 6 5 5 6 6 6 6 5 4 5 4 4 4 3 3 2 3
4 5 4 4 6 8 9 8 8 8 8 7 6 8 11 11 11 11 11 11 12 11 12 11 12 11 11 10 9 8 9 9 8 7 8 8 9 9 6 3 8 8 6 6 6 6 6 6 7 7 7 6 6 6 6 6 6 6 6 5 4 5 7 5 3 3 4 6 5 6 5 7 4 4 4 5 5 4 4 3 4 3 3 3 3
3 5 5 5 5 6 7 8 9 9 8 7 7 7 8 10 11 11 11 10 11 11 11 12 11 10 9 9 9 6 7 6 9 7 9 10 10 8 7 3 3 6 7 7 7 6 7 7 7 8 7 7 7 6 6 6 6 6 5 5 5 6 4 3 3 4 4 6 6 5 7 8 3 4 4 4 4 4 3 3 3 3 4 3 3
3 4 5 6 5 6 7 7 8 10 9 8 8 8 9 10 8 9 10 10 10 10 10 10 9 9 7 8 8 6 5 5 6 5 9 7 10 11 8 4 2 4 6 7 8 7 8 8 8 8 8 8 8 7 6 6 5 4 3 5 6 4 4 5 4 4 5 6 6 5 9 6 5 3 4 4 3 3 3 3 3 3 4 4 5
7 6 6 5 7 6 7 8 8 11 10 9 7 7 8 10 8 7 6 7 7 8 7 6 7 5 8 7 5 6 6 5 5 7 5 6 8 11 10 7 5 3 4 7 9 8 8 9 8 9 9 9 8 4 4 5 4 2 2 5 4 2 3 4 4 5 5 5 5 6 11 7 4 4 3 3 3 3 3 4 3 3 4 4 5
6 6 7 9 8 7 7 8 9 10 10 9 8 7 9 9 9 8 7 8 7 6 6 6 5 6 5 6 6 6 5 6 5 6 6 9 8 10 10 9 6 4 6 7 8 9 9 9 9 9 9 9 5 4 3 1 0 2 3 2 0 4 2 3 4 6 4 4 4 7 9 8 4 3 3 2 3 2 2 3 4 4 3 4 4
8 8 8 7 8 8 9 9 8 10 10 9 8 7 7 9 9 8 7 7 7 6 6 6 6 6 7 6 6 5 6 6 9 13 10 7 7 9 11 10 8 6 8 6 6 8 9 10 9 9 7 4 3 4 5 3 3 3 2 1 3 1 2 3 3 4 4 4 3 8 8 9 6 1 2 1 2 2 2 2 3 3 4 4 3
8 8 6 8 9 10 9 9 8 7 9 8 8 8 7 7 8 9 8 8 7 7 7 7 7 7 8 7 6 5 5 5 5 6 6 7 6 5 6 6 5 5 8 5 4 3 4 4 3 4 3 3 3 4 5 6 5 5 3 4 2 2 3 3 3 3 4 4 3 7 8 8 8 2 1 2 3 3 2 3 3 4 4 3 2
7 8 9 9 10 9 9 9 10 8 9 9 9 8 8 7 8 9 9 8 9 8 7 7 7 8 7 8 7 6 6 6 6 6 6 7 7 6 6 6 6 6 6 6 6 5 5 5 4 3 4 4 4 3 3 4 4 2 4 3 3 3 3 3 2 3 5 4 3 7 7 8 8 7 1 2 3 3 3 4 3 3 3 2 2
8 8 9 9 10 10 9 8 9 9 10 9 7 7 7 6 7 8 8 8 8 9 9 9 8 7 7 7 8 7 6 6 7 6 6 6 7 7 7 6 6 6 6 7 6 6 6 6 6 6 6 5 2 3 2 3 4 4 4 2 3 3 3 3 3 3 4 4 3 6 7 8 8 8 2 1 2 2 3 3 3 3 2 3 3
6 8 8 9 10 13 12 10 10 10 9 9 8 8 7 7 7 8 9 9 8 9 9 9 9 8 8 8 8 7 7 7 7 7 6 6 7 6 6 6 6 6 6 6 7 6 7 7 6 6 5 4 4 3 3 2 3 4 4 3 2 4 4 4 3 2 2 4 3 5 7 8 9 9 4 1 2 3 4 2 1 2 3 3 2
5 8 8 8 10 11 12 12 11 11 10 10 10 8 8 8 7 6 7 8 8 7 8 8 8 7 8 8 7 8 7 7 8 7 7 6 6 7 7 7 6 6 7 6 6 7 7 7 7 6 5 5 4 4 4 3 3 4 5 3 3 4 3 4 3 3 2 3 3 5 7 8 9 9 6 3 3 3 3 2 2 1 1 2 3
8 7 7 7 6 10 12 13 12 12 10 10 9 8 9 9 9 8 7 7 7 6 6 7 7 7 7 8 9 7 7 7 7 7 8 7 7 8 8 8 7 7 8 8 6 7 7 6 6 5 5 5 5 4 4 3 4 4 5 4 4 4 4 4 2 1 1 3 4 4 7 8 9 9 7 5 3 3 4 5 5 4 2 2 3
7 7 7 8 7 9 10 11 11 9 9 10 10 10 8 9 9 8 6 7 7 6 7 7 7 7 7 8 7 7 7 7 7 7 7 7 7 8 8 8 8 8 8 8 7 7 7 7 7 7 7 6 7 6 6 5 5 4 4 4 3 4 4 3 3 2 2 2 4 3 3 8 9 10 11 8 8 5 3 5 3 2 3 4 4
7 8 7 7 8 10 11 11 11 11 11 10 9 10 9 8 8 8 8 7 7 6 6 6 7 7 6 8 7 8 7 7 7 7 8 8 7 8 7 8 7 7 8 7 8 7 7 6 6 6 5 5 6 6 6 7 6 5 4 4 3 4 4 4 4 2 2 2 3 4 3 4 7 10 10 12 10 8 9 7 3 2 3 5 5
7 7 7 6 8 8 10 11 11 10 11 12 11 9 8 7 7 8 7 6 7 7 6 7 7 6 6 8 8 8 6 7 7 8 8 7 7 7 7 7 7 7 7 7 7 7 7 7 7 6 6 5 7 5 5 6 6 6 6 4 4 4 4 4 4 3 2 0 1 4 5 4 4 7 9 10 12 10 8 8 7 3 2 4 4
5 4 5 6 5 4 6 7 9 10 11 9 8 8 8 7 6 6 6 7 6 7 7 6 7 7 7 7 8 8 7 6 7 7 7 7 7 7 7 7 7 6 7 7 8 7 7 7 7 7 7 7 7 6 6 6 6 6 5 4 5 4 4 4 4 4 3 1 1 2 6 4 4 4 3 7 10 10 9 8 7 8 8 4 2
2 2 6 6 5 4 4 4 6 6 8 8 7 7 6 6 6 6 6 5 6 6 6 6 6 6 7 7 7 7 8 6 7 8 8 8 7 7 8 7 7 7 7 7 8 7 7 7 7 8 6 6 6 6 5 6 7 7 6 5 5 6 4 5 5 4 2 2 1 2 2 5 4 5 4 4 6 8 9 9 8 8 9 10 5
2 0 2 3 3 3 3 2 4 4 5 5 4 4 4 4 4 4 4 4 4 4 4 5 5 4 5 5 6 6 6 6 6 7 7 7 8 8 8 7 7 7 7 7 7 7 7 7 6 7 8 6 7 6 5 6 6 6 6 6 6 6 6 6 5 5 3 3 2 3 1 2 4 5 5 5 5 4 7 7 8 8 9 8 8
9 9 5 2 1 2 4 3 4 4 4 4 3 3 4 3 3 3 3 4 5 4 3 3 3 4 4 4 5 6 5 6 6 7 7 7 7 7 7 7 7 7 7 7 7 7 7 7 7 6 7 7 7 6 5 6 5 5 4 4 4 4 4 6 5 5 4 4 4 4 2 4 3 4 4 6 5 4 4 6 7 8 8 8 7
9 10 8 7 3 4 4 4 3 2 2 4 3 2 3 3 2 3 2 4 3 3 3 3 3 4 4 4 5 5 5 5 6 5 6 6 5 6 6 7 7 8 7 7 7 6 6 7 7 6 7 6 7 7 6 5 4 4 4 4 3 2 2 4 3 3 4 4 4 4 4 4 3 1 3 5 5 5 3 4 6 6 6 6 6
11 11 11 9 8 7 6 5 4 2 2 4 3 2 3 3 2 3 2 2 3 3 3 3 3 3 4 4 5 6 5 5 5 5 6 7 6 6 7 7 7 8 8 7 7 7 6 6 8 6 5 6 8 7 7 6 5 4 4 3 2 1 1 2 3 3 3 3 2 2 3 4 4 2 4 4 5 5 4 4 3 3 2 4 4
11 11 12 11 10 6 6 4 3 3 3 5 5 3 3 3 1 2 3 1 2 2 1 1 1 1 1 3 4 4 4 5 5 4 5 5 5 5 5 5 7 8 8 8 8 8 9 8 7 8 6 4 5 6 6 7 5 5 4 3 2 1 1 1 1 2 2 3 3 2 3 2 3 3 3 3 4 4 4 4 3 4 3 2 2
12 13 12 12 10 9 5 4 2 3 4 5 4 3 3 2 1 2 1 1 1 1 2 1 1 1 1 2 4 3 4 4 4 4 5 4 4 4 4 5 6 7 8 9 9 8 7 8 8 7 9 6 4 6 6 8 8 3 3 2 0 0 0 0 1 3 3 3 4 4 3 3 3 3 3 3 3 3 3 3 4 4 4 3 2
13 13 13 12 12 11 10 6 4 4 3 4 4 3 2 3 3 2 2 1 3 2 1 1 1 1 2 3 4 4 4 5 5 5 5 5 5 4 4 6 6 7 7 6 6 7 7 7 7 6 5 9 6 8 9 10 2 7 5 1 0 1 2 3 3 4 4 3 4 5 4 5 5 4 4 3 4 4 4 3 3 4 4 4 3
11 13 12 11 12 10 9 8 8 7 6 6 5 2 2 2 3 2 3 1 2 2 2 1 3 2 2 3 4 4 5 5 6 6 6 6 7 7 7 7 7 7 6 7 7 8 8 10 10 10 7 4 4 6 11 12 8 6 5 5 2 1 2 2 4 5 5 4 4 5 5 5 5 5 5 4 4 3 3 3 3 3 4 4 4
12 12 12 12 10 10 9 9 9 9 8 7 7 6 6 6 7 6 6 7 3 3 5 4 3 2 0 1 1 3 3 4 4 4 4 5 6 7 6 7 8 7 8 8 7 8 7 7 7 7 7 7 5 7 8 7 6 11 4 6 4 4 2 8 7 5 6 6 6 6 4 5 5 5 5 5 5 4 4 3 4 3 4 3 4
12 12 12 11 9 11 10 9 9 9 7 7 7 5 5 5 5 5 4 3 3 4 2 0 1 1 1 2 2 2 3 4 4 5 5 5 5 5 5 6 6 6 6 7 8 9 8 9 10 8 10 11 9 5 7 8 7 9 8 4 2 2 7 3 5 3 5 6 7 7 6 6 7 7 6 6 6 7 6 4 4 4 4 4 4
12 11 10 11 11 11 11 11 9 8 8 6 6 5 5 4 3 2 2 1 0 0 2 3 3 3 5 3 3 4 4 4 4 5 5 5 5 6 5 5 6 7 7 7 6 5 7 9 10 10 10 8 10 7 8 7 7 8 6 5 7 7 5 4 5 4 1 4 4 6 7 7 7 7 6 6 7 7 7 7 6 6 5 5 4
11 9 10 11 12 11 10 10 9 8 8 7 6 6 6 6 5 5 5 4 5 3 2 1 2 3 4 4 4 3 3 4 4 4 5 5 5 5 5 5 5 6 7 7 7 7 8 8 7 9 10 9 7 9 11 10 6 6 7 6 0 0 4 8 6 5 1 3 4 5 5 6 6 7 8 7 7 7 7 7 7 6 6 5 5
7 9 10 11 12 12 11 10 8 9 9 9 8 7 6 6 6 6 6 6 5 5 5 4 3 4 3 1 2 3 3 3 3 3 4 5 5 6 5 5 5 5 6 7 8 7 6 6 8 9 8 8 9 10 10 9 13 11 10 8 5 2 2 1 3 10 7 6 6 3 4 6 6 7 8 8 8 8 7 7 7 6 6 6 6
9 10 10 9 9 10 10 9 10 9 9 10 9 8 7 7 7 7 7 6 6 6 6 7 6 3 1 1 0 1 2 3 3 4 4 4 4 5 5 5 5 5 6 6 6 7 7 8 8 9 9 9 9 8 8 10 10 10 9 8 5 6 3 3 1 2 4 5 3 8 6 2 4 6 8 8 8 8 8 8 8 8 7 7 7
8 8 9 9 10 9 11 11 11 9 8 9 9 9 8 7 7 7 6 5 6 6 5 6 6 6 2 0 0 0 1 2 3 3 3 4 4 4 4 5 5 6 5 5 5 6 6 7 8 10 10 11 8 9 11 8 10 9 10 9 10 4 4 4 4 4 3 3 7 8 8 11 10 10 8 10 9 8 7 8 8 8 8 7 7
9 9 9 10 9 10 9 11 10 9 9 9 8 8 8 8 8 8 7 6 6 5 6 6 6 6 6 4 2 2 2 3 3 3 4 3 3 3 4 5 4 4 5 4 5 6 7 7 7 7 9 11 10 9 9 7 8 10 9 9 11 12 13 12 11 8 7 5 2 4 5 9 12 7 8 11 8 8 8 8 9 9 8 8 7
Wind_Direction
190 136 147 153 157 162 161 165 167 168 168 168 166 167 169 164 160 157 153 153 154 150 152 151 149 141 135 130 125 121 118 117 115 112 106 104 100 94 93 98 111 94 101 111 108 106 102 96 90 86 78 72 69 68 67 65 65 65 66 68 62 62 63 59 57 53 57 66 76 74 72 73 72 69 65 60 55 46 43 69 73 65 61 64 66
159 135 146 157 156 163 163 166 168 169 169 169 167 168 169 162 160 165 162 161 159 157 159 155 149 144 139 134 129 124 119 118 115 112 109 104 97 96 87 98 98 106 110 119 113 107 104 93 85 79 76 72 67 67 67 67 65 63 60 57 53 50 46 46 44 47 55 65 76 77 73 72 70 71 68 63 59 54 50 52 57 64 67 67 64
128 134 147 157 156 163 162 166 168 169 170 170 169 168 167 160 161 162 163 164 162 162 161 158 152 148 148 141 136 131 127 122 121 116 112 108 103 100 96 86 70 91 117 121 115 107 97 91 85 82 79 75 69 65 66 68 68 65 63 60 57 49 43 38 31 21 26 13 64 93 81 73 74 71 73 70 67 62 62 64 58 52 67 67 66
137 133 148 156 157 163 164 166 170 169 170 173 168 168 164 161 161 163 165 166 165 164 163 161 158 154 151 147 141 136 136 135 129 130 124 116 107 96 95 83 83 108 120 112 108 106 93 84 82 82 80 78 73 67 65 65 65 66 64 61 58 54 47 36 23 11 2 2 353 100 68 93 68 80 78 77 74 68 63 68 68 68 67 66 65
136 135 145 156 159 161 166 167 167 171 172 172 170 167 163 163 167 165 169 169 170 167 167 167 167 162 162 159 152 149 150 150 148 139 135 128 116 109 101 98 101 115 114 107 102 98 87 81 78 80 78 77 73 69 65 63 62 60 58 56 53 51 46 36 18 353 332 335 321 313 251 98 72 76 85 82 79 75 70 71 76 74 65 63 63
141 136 144 159 160 163 165 167 169 173 172 175 170 169 167 167 170 170 172 175 174 173 172 174 176 171 176 170 166 165 164 159 148 138 129 124 119 112 108 112 115 110 105 105 99 97 86 82 77 75 80 78 77 74 68 64 60 58 54 52 49 43 39 30 6 337 333 323 317 273 167 111 102 74 80 90 87 81 76 68 65 66 68 66 61
142 135 150 159 161 165 164 167 171 173 175 176 172 173 170 172 172 173 175 179 176 180 179 181 181 184 185 183 179 177 168 156 146 141 133 126 119 115 117 121 119 107 114 114 106 87 83 79 72 69 79 80 78 74 70 66 62 57 54 48 42 37 26 15 353 339 320 315 288 346 60 116 107 109 91 82 85 89 83 79 71 61 64 70 66
144 140 155 161 161 164 166 168 170 175 174 175 174 174 174 176 175 176 179 183 180 184 184 185 185 188 190 189 184 181 166 154 147 143 131 125 116 113 110 115 118 121 110 100 93 85 77 76 71 67 70 77 76 73 70 66 59 55 51 45 41 31 16 0 347 335 326 319 6 26 27 55 93 87 81 74 67 65 71 76 71 61 59 64 58
156 145 153 160 164 160 168 171 172 174 175 176 175 176 179 179 177 180 182 182 184 187 189 188 189 192 191 191 185 176 159 153 146 142 127 113 111 107 113 110 109 107 104 89 79 85 79 76 71 63 68 71 72 69 67 64 60 53 48 45 38 29 12 352 340 329 307 337 23 20 16 58 87 78 80 78 74 72 65 58 56 57 55 54 53
157 164 154 162 159 161 167 173 175 176 178 177 177 180 184 181 179 184 184 186 188 189 193 194 192 196 195 191 182 175 162 155 153 139 122 124 116 115 117 111 115 104 95 90 91 83 82 81 72 59 67 70 67 66 65 63 59 51 47 42 36 25 9 355 336 319 340 20 35 20 56 76 81 89 84 78 75 74 73 71 75 73 67 58 54
162 176 148 168 152 162 168 172 176 179 180 177 174 178 185 183 183 186 187 189 191 193 196 197 197 198 197 191 179 170 162 163 150 141 134 140 119 101 110 98 70 69 82 99 96 98 94 92 83 55 60 69 66 65 61 60 60 54 50 45 35 25 8 354 332 0 11 31 15 354 74 83 79 80 85 81 73 71 65 59 58 65 66 65 62
165 177 164 155 155 163 168 173 176 180 181 179 177 179 180 183 185 188 189 192 193 195 199 198 201 200 200 194 181 170 162 181 147 145 139 139 138 121 111 113 95 91 77 24 319 124 107 105 89 72 65 72 71 67 66 64 64 62 57 51 42 26 10 352 6 24 22 22 3 1 72 68 79 92 82 77 78 76 70 69 65 63 63 64 60
163 181 132 121 157 166 169 171 176 182 182 181 182 183 182 184 187 191 191 194 195 197 200 201 201 202 198 194 178 173 175 170 146 142 138 136 122 116 114 209 110 85 318 346 0 254 165 106 86 68 80 80 78 74 74 73 71 69 63 56 45 27 5 356 29 29 23 17 354 13 46 52 37 86 85 78 74 75 75 71 67 64 60 60 60
160 174 121 137 149 169 168 171 175 182 185 181 183 187 185 184 188 192 193 194 197 196 200 204 200 199 185 185 179 177 181 166 155 146 143 142 137 134 143 183 227 231 221 242 240 102 259 144 118 123 94 86 86 84 82 79 74 72 64 54 40 25 8 342 29 32 15 3 5 49 45 35 47 72 84 87 74 69 66 69 62 62 57 56 51
163 162 138 131 141 167 170 171 176 181 186 184 184 187 188 186 189 192 195 194 195 192 199 203 196 195 187 181 182 181 174 172 171 171 152 160 160 166 182 201 225 225 230 229 183 227 197 167 145 119 102 98 96 93 88 82 76 70 66 52 36 22 14 351 37 52 16 3 15 71 58 27 58 80 80 75 77 73 65 62 63 53 53 56 58
154 157 143 128 151 160 169 173 178 181 186 187 187 188 190 188 188 192 196 194 193 192 185 194 180 180 181 180 183 184 173 170 168 161 167 171 173 172 200 210 213 207 222 218 194 184 198 178 150 122 107 108 109 103 95 87 79 70 62 52 33 22 5 6 34 38 30 13 1 55 41 23 31 71 78 85 78 76 69 64 57 61 59 61 51
147 148 150 143 151 157 169 170 178 184 185 186 188 191 192 188 190 192 196 193 190 189 181 187 180 180 178 182 185 184 178 176 163 172 178 169 182 153 168 201 204 206 205 205 199 186 192 182 142 126 124 118 114 108 100 90 83 77 68 58 39 18 8 10 60 39 31 351 42 52 38 18 18 65 70 70 85 86 83 62 57 61 64 51 48
144 158 165 170 156 160 169 172 172 177 180 184 189 191 193 191 192 191 193 189 186 186 183 183 181 182 185 188 184 177 174 174 171 183 182 177 132 88 112 197 201 198 201 199 192 186 187 153 148 135 137 128 116 104 94 87 80 75 70 59 45 17 8 9 61 48 14 11 65 51 29 348 51 66 73 77 76 74 67 67 59 55 50 58 43
154 170 183 187 185 164 173 174 175 177 179 180 185 191 192 194 192 192 193 187 183 185 180 183 183 187 185 182 178 167 175 180 171 167 158 135 116 98 68 233 199 204 193 193 190 173 188 160 155 147 139 130 121 107 93 79 70 63 57 46 20 5 353 30 19 11 31 34 56 49 12 0 78 69 65 71 72 71 65 70 69 57 52 47 52
183 175 196 201 192 179 169 176 174 179 182 180 183 182 191 194 192 190 191 187 183 185 181 181 182 183 173 172 170 155 165 166 158 152 142 133 128 120 108 27 232 197 192 195 190 186 180 180 165 150 141 131 117 102 93 84 70 60 47 15 1 351 18 26 11 30 53 58 62 37 359 13 48 76 69 62 64 64 69 77 98 77 54 68 69
202 199 203 195 198 189 180 179 178 180 184 180 184 184 183 188 192 191 190 187 186 186 184 180 178 179 167 156 149 147 147 139 148 137 134 135 135 128 124 118 208 207 193 194 193 185 182 187 170 152 142 122 104 92 81 75 66 57 27 2 1 7 14 16 20 35 40 57 52 23 11 18 32 60 62 59 57 63 70 77 81 96 100 88 95
190 199 208 199 197 195 194 182 182 183 185 184 185 184 180 182 184 182 189 192 190 188 186 179 179 166 155 152 157 154 148 148 150 138 135 134 138 135 140 144 176 210 185 179 190 182 184 190 172 154 139 118 108 83 60 48 44 34 352 353 350 4 18 14 36 33 36 53 53 20 17 19 32 48 46 53 63 72 86 90 101 113 116 110 94
195 195 204 202 195 194 196 194 186 185 186 188 187 184 175 183 188 184 184 187 185 184 180 181 174 160 162 166 168 164 158 155 159 151 144 144 143 143 145 153 167 182 167 178 188 186 188 189 173 153 137 137 136 111 100 78 292 282 286 313 299 57 28 16 36 55 47 52 46 22 18 20 22 46 59 65 91 86 100 105 90 90 107 101 104
197 194 197 202 193 194 199 200 191 183 186 193 191 185 179 178 186 187 185 187 188 181 185 183 177 165 168 172 177 175 173 161 176 159 149 143 146 146 151 152 167 160 160 150 164 183 185 190 175 146 134 160 190 144 145 173 205 226 249 210 80 37 49 48 52 81 80 63 38 22 17 17 15 358 121 119 118 111 118 105 107 110 93 89 90
193 179 179 193 198 195 193 198 197 187 187 191 192 191 185 172 186 189 190 188 191 184 187 188 183 176 167 175 183 184 174 165 139 153 145 140 142 145 150 152 143 153 144 132 127 135 137 113 115 117 148 196 240 174 157 181 199 205 173 113 126 103 70 54 44 62 87 73 42 24 15 6 10 342 186 132 112 133 124 128 134 105 92 95 93
175 168 187 187 195 198 194 194 194 192 189 192 193 192 189 176 184 189 190 190 188 190 187 191 189 185 172 176 179 184 176 152 140 152 151 141 145 150 157 155 147 156 152 143 144 143 139 139 148 166 206 213 212 173 173 170 177 114 91 108 123 98 87 78 65 48 90 88 47 30 14 1 352 354 270 158 130 151 145 143 127 111 101 99 101
175 185 178 186 188 194 196 191 195 192 192 192 191 184 194 193 177 184 190 196 188 189 192 194 195 187 183 175 177 185 178 158 152 157 161 152 151 158 163 166 161 158 167 149 160 158 165 161 163 186 218 187 151 93 63 69 97 104 98 78 78 97 101 91 70 59 91 104 81 41 18 3 354 349 335 154 168 157 145 126 125 132 132 110 107
170 187 181 181 181 191 191 187 192 191 190 190 193 190 191 194 192 183 192 197 190 191 192 193 193 191 186 182 176 178 173 167 160 160 172 159 159 159 163 172 169 163 171 162 163 161 177 167 168 191 192 138 124 126 119 101 95 109 103 89 71 71 75 83 64 28 76 115 88 38 21 7 358 355 337 263 205 199 154 149 150 162 163 148 109
192 188 189 182 182 185 186 190 190 193 189 187 196 194 189 192 195 194 191 188 196 189 185 182 189 190 185 180 176 177 173 172 161 165 161 169 162 163 167 178 169 165 164 188 170 165 177 167 171 181 151 138 137 157 153 154 141 120 117 115 92 88 76 80 65 32 22 81 84 47 27 11 3 6 356 304 225 230 228 187 210 108 114 176 142
214 198 179 195 179 179 186 190 190 191 189 188 196 194 191 190 196 198 191 186 194 186 178 180 186 182 182 180 180 177 174 173 157 160 165 178 172 166 168 177 172 166 165 187 178 159 169 163 163 158 153 152 153 182 144 150 116 111 118 124 120 135 118 108 119 117 47 80 98 73 38 19 16 13 14 3 313 230 243 214 180 169 195 186 169
204 208 189 188 184 171 186 189 190 186 185 192 194 198 190 193 192 194 190 187 186 185 181 177 180 181 179 178 175 175 167 167 157 163 168 178 178 170 174 173 171 170 167 176 165 159 163 164 163 163 166 159 169 166 148 134 122 100 120 120 128 101 100 106 83 57 73 63 109 99 57 37 27 24 26 36 34 20 299 236 170 182 215 215 191
203 215 205 181 177 178 182 187 188 185 185 191 191 198 201 195 188 189 195 186 179 184 181 177 181 178 172 176 175 178 167 170 160 166 170 178 179 175 174 169 172 163 165 161 160 161 165 164 160 162 164 156 152 163 150 141 141 141 119 118 110 114 118 113 108 86 55 63 101 125 109 68 42 38 32 34 38 43 42 45 70 168 227 233 217
219 211 206 178 180 185 179 187 186 183 187 188 191 194 196 193 187 191 189 181 178 180 183 181 177 177 173 175 180 180 174 168 167 168 170 176 175 171 172 169 165 160 160 158 156 160 158 155 165 157 158 142 140 163 148 144 133 142 139 155 123 111 118 119 116 98 90 58 145 151 133 113 84 49 41 39 32 42 53 51 49 36 294 250 247
217 209 181 194 190 182 177 179 187 185 189 190 185 188 193 194 185 183 185 182 179 181 186 180 175 177 174 176 180 181 180 168 160 167 168 173 177 174 170 169 166 160 158 154 160 163 158 153 161 148 157 145 152 162 146 137 140 139 132 145 132 146 131 116 135 133 136 199 222 120 152 141 133 100 70 45 37 34 48 58 57 48 30 1 262
14 151 170 196 185 174 165 177 182 185 182 187 181 184 186 181 178 177 181 181 181 182 182 181 178 176 168 173 177 177 181 172 164 166 175 172 174 172 174 175 165 157 157 164 158 164 154 158 157 152 154 148 153 166 161 153 149 150 150 159 142 140 130 131 118 131 150 201 126 147 140 165 145 133 122 100 53 32 39 54 57 51 42 32 14
298 98 172 155 173 144 141 129 159 171 171 181 174 164 175 168 164 168 167 166 166 174 176 183 176 172 166 164 176 176 179 178 170 167 175 178 175 175 178 168 164 157 157 160 158 167 162 158 172 155 157 172 155 173 168 155 152 149 155 158 150 150 154 144 145 149 184 149 158 156 148 115 125 158 153 118 102 55 44 51 55 52 46 37 29
16 13 38 84 86 95 120 108 137 165 147 165 158 139 138 152 151 160 154 144 150 160 167 168 167 172 169 162 175 178 184 185 177 173 174 180 177 174 176 171 159 156 155 164 167 171 161 163 175 176 166 164 160 164 165 150 148 146 143 131 147 151 152 153 156 167 155 165 180 169 140 104 106 118 106 133 123 111 70 68 63 54 39 39 39
12 16 16 46 43 74 107 87 92 125 118 140 149 126 116 121 132 138 138 128 140 141 159 162 186 172 169 169 169 179 189 188 180 170 172 180 178 173 174 167 159 155 156 164 177 172 167 163 171 181 170 155 160 162 165 149 133 127 113 114 128 133 158 143 155 146 155 197 171 172 153 140 143 170 114 129 139 134 127 107 96 71 41 35 39
21 20 22 22 35 43 69 62 70 74 75 90 94 81 71 63 70 87 120 111 130 139 154 159 171 163 171 162 164 177 185 188 184 173 173 183 184 180 174 171 160 158 154 163 174 173 169 172 169 178 172 168 161 166 157 140 127 117 116 126 118 121 113 113 119 132 170 210 179 187 134 152 164 150 126 122 135 146 152 166 143 116 81 38 32
24 22 26 25 21 35 70 55 36 80 74 86 91 89 79 84 74 37 52 41 65 94 71 106 99 111 140 134 145 163 174 188 189 181 178 181 184 185 176 167 165 159 162 167 180 179 178 174 175 168 167 154 149 151 132 123 96 95 99 64 60 83 36 83 108 178 215 188 183 154 146 169 145 141 144 141 129 141 155 176 163 143 135 103 52
28 25 30 26 20 17 41 76 49 58 93 92 99 105 111 92 84 116 143 146 135 101 90 68 75 96 111 118 128 137 156 181 195 180 190 178 185 181 164 170 167 169 174 183 181 183 179 174 166 166 162 160 165 153 144 126 120 67 55 91 56 24 60 23 248 245 213 190 160 156 186 146 163 149 175 149 145 156 168 164 160 150 151 146 165
25 26 29 29 22 17 17 13 38 32 58 100 111 105 128 152 142 161 140 140 131 127 146 134 148 108 117 124 129 146 155 182 189 187 184 184 186 182 171 178 176 184 187 179 179 181 175 174 160 164 184 166 175 162 159 121 154 169 150 180 348 290 228 207 250 252 222 203 174 171 194 181 177 176 189 157 171 177 179 185 175 153 158 164 171
28 30 27 34 27 19 12 14 23 26 19 36 57 71 63 84 91 69 115 131 102 120 132 145 146 150 138 142 145 164 163 183 187 189 188 191 190 185 187 178 184 179 177 188 185 185 186 181 177 174 177 186 153 173 170 178 166 142 130 98 229 180 306 305 256 232 213 208 189 190 192 184 183 177 179 160 178 191 198 187 174 160 166 172 175
27 27 26 28 28 20 15 21 24 21 17 23 30 35 49 52 57 62 50 79 82 48 53 46 59 71 42 79 94 144 157 174 185 192 197 201 199 198 189 181 190 184 183 186 190 195 187 189 186 185 163 167 185 200 197 182 143 140 170 196 196 144 285 251 206 228 195 196 190 199 184 184 179 180 164 176 187 188 202 178 173 174 183 182 177
28 27 23 25 26 20 17 24 32 20 16 19 23 19 48 43 49 39 37 37 34 60 79 333 123 139 150 139 197 151 168 171 180 197 200 209 210 206 197 191 189 194 187 192 196 199 194 192 187 179 184 182 191 179 214 204 199 195 146 122 123 205 215 209 142 247 185 192 206 191 190 178 180 182 183 194 186 184 179 171 176 180 193 198 193
30 25 21 28 29 23 20 23 24 17 6 14 22 28 47 62 58 64 47 45 349 133 185 200 198 175 200 203 179 177 183 185 181 192 205 208 216 216 211 194 193 193 195 200 200 195 199 196 196 190 195 203 183 167 194 228 213 219 219 204 152 175 183 188 125 235 229 226 200 204 193 192 180 186 194 197 189 184 176 175 178 187 194 197 200
29 25 29 28 32 29 23 27 23 13 3 1 22 29 36 40 42 38 40 27 14 334 354 328 166 197 178 183 192 187 192 189 207 190 198 206 213 220 219 213 197 194 196 197 202 204 205 204 196 198 202 197 168 188 192 198 218 254 242 243 96 150 146 130 204 93 227 283 226 211 223 204 189 188 201 206 194 178 182 172 184 186 192 197 198
24 31 36 32 32 30 23 23 25 19 10 2 9 22 47 41 35 33 34 26 23 5 354 350 30 54 71 122 135 179 194 195 212 220 204 204 211 219 219 219 213 204 194 203 208 210 207 209 204 206 204 200 198 195 195 187 188 211 217 230 223 179 203 209 169 172 161 164 234 248 240 209 200 208 200 202 197 188 177 183 182 184 192 199 195
27 33 36 37 38 36 31 25 28 24 15 10 6 11 29 44 48 42 32 16 21 8 358 0 8 47 48 40 62 178 189 220 217 220 226 215 215 222 224 222 220 221 204 209 215 212 208 199 203 205 207 211 209 209 194 199 198 204 196 226 214 210 223 236 200 146 145 149 225 190 209 211 222 228 214 204 202 189 185 183 180 181 190 196 195
25 26 35 38 38 36 34 31 28 22 19 21 15 14 19 30 45 43 44 24 17 4 9 359 359 5 19 349 208 269 203 223 254 254 242 229 216 222 230 231 230 229 220 215 219 222 222 214 207 206 208 213 212 211 213 201 203 206 204 195 202 186 216 256 251 214 246 187 174 196 192 177 198 229 200 209 199 193 185 179 179 184 189 194 194
21 25 28 34 36 36 33 36 27 24 18 21 23 22 19 24 33 33 35 30 16 22 18 5 360 0 351 340 328 257 222 197 209 248 256 252 237 216 220 235 239 237 234 235 231 223 227 225 219 213 211 212 214 218 222 217 198 206 206 199 206 196 198 199 202 205 191 189 132 201 194 199 201 208 219 207 193 194 186 180 184 188 187 191 194